Stations météo

réclame
Mon MeteoGroup
La Coruna/Alvedro, Espagne (8002): Température de l'air & dewpoint: 17.10.2018 12:00:00 - 23.10.2018 12:00:00 (CEST)La Coruna/Alvedro, Espagne (8002): Vitesse du vent: 17.10.2018 12:00:00 - 23.10.2018 12:00:00 (CEST)La Coruna/Alvedro, Espagne (8002): Direction du vent: 17.10.2018 12:00:00 - 23.10.2018 12:00:00 (CEST)La Coruna/Alvedro, Espagne (8002): reduced air pressure: 17.10.2018 12:00:00 - 23.10.2018 12:00:00 (CEST)La Coruna/Alvedro, Espagne (8002): visibility: 17.10.2018 12:00:00 - 23.10.2018 12:00:00 (CEST)
Date & Time tt [°C] td [°C] ff [km/h] ff [knt] dd ppp [hPa] vv [km]
23.10.2018 12:00:00 - - - - - - -
23.10.2018 11:00:00 18,2 9,7 8 4 SE 1027,4 10
23.10.2018 10:00:00 16,3 9,2 5 3 ESE 1027,3 10
23.10.2018 09:00:00 14,9 8,6 8 4 ESE 1026,8 10
23.10.2018 08:00:00 15,2 8,7 9 5 ESE 1026,8 10
23.10.2018 07:00:00 14,9 8,6 9 5 E 1027,0 30
23.10.2018 06:00:00 14,8 9,2 5 3 NNW 1027,1 10
23.10.2018 05:00:00 15,7 8,9 8 4 NE 1027,5 10
23.10.2018 04:00:00 16,6 10,0 21 11 E 1027,8 10
23.10.2018 03:00:00 16,8 11,1 16 9 E 1027,7 30
23.10.2018 02:00:00 16,8 11,3 13 7 ENE 1027,9 30
23.10.2018 01:00:00 16,3 10,8 4 2 - 1028,0 10
23.10.2018 00:00:00 16,0 10,3 8 4 - 1028,2 10
22.10.2018 23:00:00 15,9 10,1 11 6 ENE 1028,0 10
22.10.2018 22:00:00 15,9 10,2 15 8 NE 1027,7 10
22.10.2018 21:00:00 16,3 10,6 8 4 N 1027,8 10
22.10.2018 20:00:00 16,6 10,0 18 10 NE 1027,4 10
22.10.2018 19:00:00 18,3 10,1 22 12 ENE 1026,7 10
22.10.2018 18:00:00 19,8 10,4 21 11 NE 1026,6 30
22.10.2018 17:00:00 21,3 11,1 26 14 ENE 1026,2 10
22.10.2018 16:00:00 22,0 11,0 24 13 ENE - 10
22.10.2018 15:00:00 21,9 10,0 22 12 E 1026,0 30
22.10.2018 14:00:00 21,6 10,1 22 12 ENE 1026,3 10
22.10.2018 13:00:00 19,1 11,3 8 4 NNE 1026,4 10
22.10.2018 12:00:00 17,1 12,2 5 3 N 1026,4 10
22.10.2018 11:00:00 14,7 11,7 8 4 N 1026,5 10
22.10.2018 10:00:00 11,9 10,6 2 1 - 1026,3 10
22.10.2018 09:00:00 11,4 10,3 2 1 - 1025,5 10
22.10.2018 08:00:00 11,0 10,0 2 1 ESE - 10
22.10.2018 07:00:00 12,6 11,7 4 2 - 1024,6 10
22.10.2018 06:00:00 14,1 12,3 4 2 - 1024,1 10
22.10.2018 05:00:00 15,0 13,2 8 4 N 1024,0 10
22.10.2018 04:00:00 14,9 13,3 5 3 NNE 1024,3 10
22.10.2018 03:00:00 14,8 13,3 5 3 NNE 1024,1 10
22.10.2018 02:00:00 15,0 13,5 4 2 - 1023,8 10
22.10.2018 01:00:00 15,1 13,5 5 3 NNW 1023,6 10
22.10.2018 00:00:00 15,4 13,6 4 2 - 1023,2 10
21.10.2018 23:00:00 16,1 13,6 8 4 N 1022,7 10
21.10.2018 22:00:00 16,4 13,7 5 3 N 1022,2 10
21.10.2018 21:00:00 16,9 13,8 8 4 N 1021,8 10
21.10.2018 20:00:00 17,9 14,0 5 3 - 1021,2 10
21.10.2018 19:00:00 20,0 14,8 8 4 NNW 1020,2 10
21.10.2018 18:00:00 21,2 14,9 9 5 N 1019,9 10
21.10.2018 17:00:00 22,2 15,5 11 6 N 1020,0 17
21.10.2018 16:00:00 22,0 15,0 8 4 N - 22
21.10.2018 15:00:00 21,7 14,7 9 5 NNE 1020,4 10
21.10.2018 14:00:00 20,9 14,1 11 6 NNE 1021,0 19
21.10.2018 13:00:00 20,3 14,0 4 2 - 1021,4 10
21.10.2018 12:00:00 17,8 13,1 0 0 N 1021,6 10
21.10.2018 11:00:00 15,5 12,8 0 0 N 1021,7 10
21.10.2018 10:00:00 12,4 11,5 5 3 S 1021,9 10
21.10.2018 09:00:00 11,4 10,5 8 4 SSW 1021,2 10
21.10.2018 08:00:00 12,6 11,5 0 0 N 1021,0 10
21.10.2018 07:00:00 13,8 11,8 5 3 SSW 1020,8 10
21.10.2018 06:00:00 13,3 11,7 8 4 S 1020,9 10
21.10.2018 05:00:00 13,7 11,9 8 4 SSW 1021,1 10
21.10.2018 04:00:00 13,1 12,0 2 1 - 1021,4 9
21.10.2018 03:00:00 13,9 11,9 5 3 SSW 1021,5 10
21.10.2018 02:00:00 15,4 12,3 5 3 NE 1021,6 17
21.10.2018 01:00:00 15,6 12,4 8 4 E 1022,3 10
21.10.2018 00:00:00 15,5 12,6 11 6 SE 1022,4 15
20.10.2018 23:00:00 15,7 12,6 2 1 ENE 1021,8 14
20.10.2018 22:00:00 16,1 12,5 2 1 - 1021,7 10
20.10.2018 21:00:00 16,7 12,4 11 6 ENE 1021,8 10
20.10.2018 20:00:00 17,6 12,3 9 5 NNE 1021,4 10
20.10.2018 19:00:00 19,3 12,1 26 14 ENE 1020,7 10
20.10.2018 18:00:00 21,4 11,5 16 9 ENE 1020,2 10
20.10.2018 17:00:00 22,6 10,9 18 10 ENE 1020,2 24
20.10.2018 16:00:00 22,3 12,7 13 7 NNE 1020,8 10
20.10.2018 15:00:00 22,6 11,4 18 10 ENE 1021,5 19
20.10.2018 14:00:00 21,7 11,8 13 7 ENE 1022,6 10
20.10.2018 13:00:00 19,9 13,1 11 6 NNE 1023,2 10
20.10.2018 12:00:00 18,1 13,5 11 6 N 1023,5 10
20.10.2018 11:00:00 16,1 13,2 13 7 N 1023,2 10
20.10.2018 10:00:00 14,2 11,9 5 3 NNW 1022,8 9
20.10.2018 09:00:00 13,3 12,2 5 3 NNW 1022,1 7
20.10.2018 08:00:00 12,6 11,8 0 0 N 1021,9 6
20.10.2018 07:00:00 13,1 11,5 0 0 N 1021,5 7
20.10.2018 06:00:00 14,5 12,5 5 3 N 1021,1 10
20.10.2018 05:00:00 14,8 12,5 5 3 N 1021,5 10
20.10.2018 04:00:00 15,5 12,4 9 5 NNE 1021,8 10
20.10.2018 03:00:00 15,6 12,7 11 6 NNE 1021,9 10
20.10.2018 02:00:00 15,8 12,9 9 5 N 1022,0 10
20.10.2018 01:00:00 16,0 12,7 9 5 N 1022,0 12
20.10.2018 00:00:00 16,0 12,9 8 4 N 1021,7 15
19.10.2018 23:00:00 16,7 13,0 8 4 NE 1021,5 10
19.10.2018 22:00:00 16,6 13,5 11 6 NNE 1021,2 10
19.10.2018 21:00:00 16,9 12,8 5 3 NNE 1020,9 10
19.10.2018 20:00:00 17,5 13,2 16 9 NE 1020,1 10
19.10.2018 19:00:00 19,3 13,7 9 5 NE 1019,2 29
19.10.2018 18:00:00 20,3 13,7 11 6 N 1019,0 24
19.10.2018 17:00:00 20,3 13,9 16 9 ENE 1019,1 10
19.10.2018 16:00:00 20,6 14,3 21 11 ENE 1018,9 10
19.10.2018 15:00:00 20,9 14,2 18 10 NE 1019,3 10
19.10.2018 14:00:00 20,0 14,8 13 7 NNE 1019,9 18
19.10.2018 13:00:00 19,4 14,9 11 6 N 1020,0 10
19.10.2018 12:00:00 18,0 14,9 9 5 N 1020,0 9
19.10.2018 11:00:00 16,1 15,1 11 6 NNE 1019,9 8
19.10.2018 10:00:00 15,4 15,1 9 5 N 1019,6 2,5
19.10.2018 09:00:00 15,1 14,8 11 6 N 1018,9 2,5
19.10.2018 08:00:00 14,9 14,4 13 7 N 1018,7 1,8
19.10.2018 07:00:00 14,9 13,6 8 4 NNW 1018,2 10
19.10.2018 06:00:00 15,2 13,7 8 4 N 1018,2 11
19.10.2018 05:00:00 15,9 13,4 5 3 NNE 1018,5 10
19.10.2018 04:00:00 16,0 14,0 9 5 NNE 1019,2 10
19.10.2018 03:00:00 15,8 14,5 9 5 N 1019,5 8
19.10.2018 02:00:00 15,9 14,8 9 5 N 1019,5 7
19.10.2018 01:00:00 15,5 14,7 11 6 N 1019,2 5
19.10.2018 00:00:00 15,6 14,5 9 5 N 1019,3 6
18.10.2018 23:00:00 15,8 14,5 13 7 N 1018,9 7
18.10.2018 22:00:00 15,2 14,6 9 5 N 1018,5 6
18.10.2018 21:00:00 15,5 14,5 13 7 N 1018,0 7
18.10.2018 20:00:00 15,4 14,3 11 6 N 1017,6 7
18.10.2018 19:00:00 15,7 14,2 13 7 N 1017,4 7
18.10.2018 18:00:00 15,8 14,2 15 8 N 1017,3 9
18.10.2018 17:00:00 17,0 13,9 13 7 N 1017,1 10
18.10.2018 16:00:00 17,6 13,5 18 10 NNE 1017,1 30
18.10.2018 15:00:00 17,8 13,8 16 9 NE 1017,4 10
18.10.2018 14:00:00 16,6 13,5 13 7 NNE 1018,1 10
18.10.2018 13:00:00 16,2 13,3 9 5 N 1018,5 10
18.10.2018 12:00:00 16,5 13,0 13 7 N 1018,1 10
18.10.2018 11:00:00 15,8 12,5 11 6 NNE 1018,0 10
18.10.2018 10:00:00 15,0 12,5 13 7 NE 1017,5 10
18.10.2018 09:00:00 14,8 12,7 11 6 NNE 1017,0 30
18.10.2018 08:00:00 14,9 13,1 11 6 N 1016,2 30
18.10.2018 07:00:00 15,1 13,6 9 5 N 1015,7 10
18.10.2018 06:00:00 14,7 13,2 8 4 N 1015,4 10
18.10.2018 05:00:00 14,1 13,1 9 5 N 1015,3 9
18.10.2018 04:00:00 13,8 13,3 8 4 N 1015,1 8
18.10.2018 03:00:00 13,8 13,3 5 3 NW 1015,3 6
18.10.2018 02:00:00 13,7 13,2 8 4 NNW 1015,5 6
18.10.2018 01:00:00 13,8 13,5 8 4 NW 1015,8 6
18.10.2018 00:00:00 13,5 13,2 5 3 NNE 1016,0 10
17.10.2018 23:00:00 13,2 12,9 8 4 N 1016,2 0,8
17.10.2018 22:00:00 13,3 12,8 11 6 N 1015,9 6
17.10.2018 21:00:00 13,9 13,3 5 3 NNE 1015,5 3,0
17.10.2018 20:00:00 14,0 13,2 4 2 - 1015,2 10
17.10.2018 19:00:00 13,9 13,4 5 3 N 1014,7 18
17.10.2018 18:00:00 13,6 13,3 9 5 N 1015,0 9
17.10.2018 17:00:00 13,5 13,2 16 9 N 1015,4 10
17.10.2018 16:00:00 14,0 13,2 11 6 WNW 1015,7 3,5
17.10.2018 15:00:00 14,4 13,6 8 4 NW 1016,1 4,0
17.10.2018 14:00:00 15,9 13,0 8 4 NNW 1016,4 10
17.10.2018 13:00:00 16,0 12,5 8 4 N 1016,9 10
17.10.2018 12:00:00 15,5 12,6 5 3 S 1017,0 10

tt = Température de l'air
td = dewpoint
ff = Vitesse du vent
dd = Direction du vent
ppp = reduced air pressure
vv = visibility

stations d'obs. à proximité